Weather History for KMDS - April, 2013

Change the Weather History Date:

Monday, April 22, 2013

  Actual Average Record
Temperature  
Mean Temperature 28 °F -  
Max Temperature 32 °F 58 °F 64 °F (2014)
Min Temperature 24 °F 37 °F 21 °F (2015)
Degree Days  
Heating Degree Days 37    
Moisture  
Dew Point 28 °F    
Average Humidity 100    
Maximum Humidity 100    
Minimum Humidity 100    
Precipitation  
Precipitation 15.14 in - - ()
Sea Level Pressure  
Sea Level Pressure 30.19 in    
Wind  
Wind Speed 14 mph (NNE)    
Max Wind Speed 25 mph    
Max Gust Speed 31 mph    
Visibility 7 miles    
Events Rain , Snow    
Averages and records for this station are not official NWS values.
T = Trace of Precipitation, MM = Missing Value Source: NWS Daily Summary

Daily Weather History Graph

Daily Weather History Graph

Search for Another Location

Airport or City:

Trip Planner

Search our weather history database for the weather conditions in past years. The results will help you decide how hot, cold, wet, or windy it might be!

Date:

Astronomy

Apr. 22, 2013 Rise Set
Actual Time 6:33 AM CDT 8:21 PM CDT
Civil Twilight 6:02 AM CDT 8:52 PM CDT
Nautical Twilight 5:24 AM CDT 9:29 PM CDT
Astronomical Twilight 4:44 AM CDT 10:10 PM CDT
Moon 5:05 PM CDT (4/22) 4:35 AM CDT (4/22)
Length of Visible Light 14h 49m
Length of Day
13h 48m
Waxing Gibbous, 88% of the Moon is Illuminated
Apr 22
Waxing Gibbous
Apr 25
Full
May 2
Last Quarter
May 9
New
May 17
First Quarter

Hourly Weather History & Observations

Time (CDT) Temp. Windchill Dew Point Humidity Pressure Visibility Wind Dir Wind Speed Gust Speed Precip Events Conditions
12:15 AM 32.0 °F 26.4 °F 32.0 °F 100% 30.15 in 10.0 mi NNE 5.8 mph - N/A   Clear
12:35 AM 30.2 °F 21.3 °F 30.2 °F 100% 30.15 in 10.0 mi North 10.4 mph - N/A   Clear
12:55 AM 30.2 °F 25.4 °F 30.2 °F 100% 30.16 in 10.0 mi NNE 4.6 mph - N/A   Clear
1:15 AM 30.2 °F 21.9 °F 30.2 °F 100% 30.16 in 10.0 mi NNE 9.2 mph - N/A   Clear
1:35 AM 30.2 °F 21.9 °F 30.2 °F 100% 30.15 in 10.0 mi NNE 9.2 mph - N/A   Clear
1:55 AM 30.2 °F 23.4 °F 30.2 °F 100% 30.16 in 10.0 mi NNE 6.9 mph - N/A   Clear
2:15 AM 28.4 °F 22.2 °F 28.4 °F 100% 30.16 in 10.0 mi East 5.8 mph - N/A   Mostly Cloudy
2:35 AM 28.4 °F 23.3 °F 28.4 °F 100% 30.16 in 10.0 mi ENE 4.6 mph - N/A   Overcast
2:55 AM 30.2 °F 23.4 °F 30.2 °F 100% 30.16 in 10.0 mi ENE 6.9 mph - N/A   Overcast
3:15 AM 30.2 °F 20.8 °F 30.2 °F 100% 30.15 in 10.0 mi NE 11.5 mph - N/A   Overcast
3:35 AM 30.2 °F 20.8 °F 30.2 °F 100% 30.15 in 10.0 mi ENE 11.5 mph - N/A   Overcast
3:55 AM 30.2 °F 18.9 °F 30.2 °F 100% 30.15 in 10.0 mi NE 16.1 mph - N/A   Overcast
4:15 AM 28.4 °F 17.0 °F 28.4 °F 100% 30.14 in 10.0 mi NE 15.0 mph - N/A   Overcast
4:35 AM 28.4 °F 17.5 °F 28.4 °F 100% 30.16 in 10.0 mi NE 13.8 mph - N/A   Overcast
4:55 AM 28.4 °F 18.5 °F 28.4 °F 100% 30.17 in 10.0 mi NE 11.5 mph - N/A   Overcast
5:15 AM 28.4 °F 17.0 °F 28.4 °F 100% 30.17 in 10.0 mi NE 15.0 mph - N/A   Overcast
5:35 AM 28.4 °F 16.6 °F 28.4 °F 100% 30.16 in 10.0 mi NE 16.1 mph - N/A   Overcast
5:55 AM 28.4 °F 16.2 °F 28.4 °F 100% 30.14 in 10.0 mi NE 17.3 mph - N/A   Overcast
6:15 AM 28.4 °F 16.2 °F 28.4 °F 100% 30.14 in 10.0 mi NE 17.3 mph - N/A   Overcast
6:35 AM 28.4 °F 15.8 °F 28.4 °F 100% 30.13 in 10.0 mi NE 18.4 mph 23.0 mph N/A   Overcast
6:55 AM 28.4 °F 16.2 °F 28.4 °F 100% 30.13 in 10.0 mi NE 17.3 mph 23.0 mph N/A   Overcast
7:15 AM 28.4 °F 16.2 °F 28.4 °F 100% 30.14 in 10.0 mi NE 17.3 mph - N/A   Overcast
7:35 AM 28.4 °F 16.2 °F 28.4 °F 100% 30.16 in 10.0 mi NNE 17.3 mph - N/A   Overcast
7:55 AM 28.4 °F 16.2 °F 28.4 °F 100% 30.18 in 10.0 mi NNE 17.3 mph - N/A   Overcast
8:15 AM 28.4 °F 14.7 °F 28.4 °F 100% 30.17 in 10.0 mi NNE 21.9 mph 26.5 mph N/A Rain Light Freezing Rain
8:35 AM 28.4 °F 14.4 °F 28.4 °F 100% 30.17 in 8.0 mi NNE 23.0 mph - N/A   Overcast
8:55 AM 28.4 °F 15.4 °F 28.4 °F 100% 30.18 in 5.0 mi NNE 19.6 mph - 0.02 in   Scattered Clouds
9:15 AM 28.4 °F 13.8 °F 28.4 °F 100% 30.15 in 9.0 mi NNE 25.3 mph 29.9 mph N/A Rain Light Freezing Rain
9:35 AM 28.4 °F 14.7 °F 28.4 °F 100% 30.17 in 8.0 mi NNE 21.9 mph 27.6 mph 0.02 in   Scattered Clouds
9:55 AM 28.4 °F 15.4 °F 28.4 °F 100% 30.16 in 10.0 mi NE 19.6 mph 31.1 mph 0.02 in   Scattered Clouds
10:15 AM 28.4 °F 15.4 °F 28.4 °F 100% 30.16 in 1.0 mi NE 19.6 mph 24.2 mph 0.10 in Snow Light Snow
10:35 AM 28.4 °F 16.6 °F 28.4 °F 100% 30.18 in 1.5 mi NE 16.1 mph 24.2 mph 0.24 in Snow Light Snow
10:55 AM 28.4 °F 15.8 °F 28.4 °F 100% 30.18 in 0.8 mi NNE 18.4 mph 21.9 mph 0.41 in Snow Light Snow
11:15 AM 28.4 °F 15.8 °F 28.4 °F 100% 30.18 in 0.5 mi NNE 18.4 mph - 0.22 in   Overcast
11:35 AM 28.4 °F 15.8 °F 28.4 °F 100% 30.18 in 0.2 mi NNE 18.4 mph - 0.59 in Snow Heavy Snow
11:55 AM 28.4 °F 17.0 °F 28.4 °F 100% 30.20 in 0.5 mi NNE 15.0 mph - 0.83 in   Overcast
12:15 PM 28.4 °F 15.4 °F 28.4 °F 100% 30.19 in 0.8 mi North 19.6 mph 24.2 mph 0.11 in Snow Light Snow
12:35 PM 28.4 °F 14.4 °F 28.4 °F 100% 30.18 in 0.5 mi North 23.0 mph 27.6 mph 0.29 in Snow Snow
12:55 PM 28.4 °F 14.4 °F 28.4 °F 100% 30.17 in 1.0 mi North 23.0 mph 29.9 mph 0.41 in   Clear
1:15 PM 28.4 °F 14.1 °F 28.4 °F 100% 30.16 in 0.8 mi NNE 24.2 mph 28.8 mph 0.07 in Rain Light Freezing Rain
1:35 PM 28.4 °F 14.7 °F 28.4 °F 100% 30.17 in 0.5 mi NNE 21.9 mph 27.6 mph 0.28 in   Unknown
1:55 PM 28.4 °F 14.4 °F 28.4 °F 100% 30.17 in 0.2 mi NNE 23.0 mph - 1.07 in Rain Light Freezing Rain
2:15 PM 28.4 °F 14.7 °F 28.4 °F 100% 30.16 in 0.2 mi NE 21.9 mph 28.8 mph 0.21 in Snow Heavy Snow
2:35 PM 28.4 °F 15.1 °F 28.4 °F 100% 30.17 in 0.5 mi NNE 20.7 mph 24.2 mph 0.49 in Snow Snow
2:55 PM 28.4 °F 15.4 °F 28.4 °F 100% 30.17 in 0.2 mi North 19.6 mph - 0.95 in Snow Heavy Snow
3:15 PM 28.4 °F - 28.4 °F 100% 30.17 in 0.2 mi North - - 0.43 in   Overcast
3:35 PM 28.4 °F - 28.4 °F 100% 30.18 in 0.2 mi North - - 1.02 in Snow Heavy Snow
3:55 PM 28.4 °F 14.7 °F 28.4 °F 100% 30.18 in 0.2 mi North 21.9 mph - 2.13 in Snow Heavy Snow
4:15 PM 28.4 °F 14.7 °F 28.4 °F 100% 30.18 in 0.2 mi North 21.9 mph 27.6 mph 2.74 in Snow Heavy Snow
4:35 PM 28.4 °F - 28.4 °F 100% 30.18 in 0.8 mi North - - 4.45 in Snow Light Snow
4:55 PM 28.4 °F 14.7 °F 28.4 °F 100% 30.19 in 1.0 mi North 21.9 mph - 9.17 in Snow Light Snow
5:15 PM 28.4 °F 15.1 °F 28.4 °F 100% 30.20 in 4.0 mi North 20.7 mph - 0.07 in   Clear
5:35 PM 28.4 °F 14.7 °F 28.4 °F 100% 30.21 in 5.0 mi North 21.9 mph 27.6 mph 0.08 in   Partly Cloudy
5:55 PM 28.4 °F 15.1 °F 28.4 °F 100% 30.21 in 8.0 mi North 20.7 mph 26.5 mph 0.09 in   Clear
6:15 PM 28.4 °F 15.4 °F 28.4 °F 100% 30.21 in 5.0 mi North 19.6 mph 25.3 mph N/A Snow Light Snow
6:35 PM 28.4 °F 15.1 °F 28.4 °F 100% 30.23 in 9.0 mi North 20.7 mph - 0.01 in Snow Light Snow
6:55 PM 28.4 °F 15.4 °F 28.4 °F 100% 30.22 in 10.0 mi North 19.6 mph - 0.02 in Rain Light Freezing Rain
7:15 PM 28.4 °F 14.7 °F 28.4 °F 100% 30.22 in 10.0 mi North 21.9 mph 26.5 mph N/A Rain Light Freezing Rain
7:35 PM 26.6 °F 12.7 °F 26.6 °F 100% 30.23 in 10.0 mi North 20.7 mph - N/A Rain Light Freezing Rain
7:55 PM 26.6 °F 14.7 °F 26.6 °F 100% 30.25 in 10.0 mi North 15.0 mph - N/A Rain Light Freezing Rain
8:15 PM 26.6 °F 13.4 °F 26.6 °F 100% 30.26 in 10.0 mi North 18.4 mph 21.9 mph N/A Rain Light Freezing Rain
8:35 PM 26.6 °F 13.8 °F 26.6 °F 100% 30.26 in 10.0 mi North 17.3 mph - N/A   Overcast
8:55 PM 26.6 °F 13.1 °F 26.6 °F 100% 30.26 in 10.0 mi North 19.6 mph 24.2 mph 0.02 in   Overcast
9:15 PM 26.6 °F 13.4 °F 26.6 °F 100% 30.27 in 10.0 mi North 18.4 mph - N/A Rain Light Freezing Rain
9:35 PM 26.6 °F 13.4 °F 26.6 °F 100% 30.27 in 10.0 mi North 18.4 mph - N/A   Overcast
9:55 PM 26.6 °F 14.3 °F 26.6 °F 100% 30.28 in 10.0 mi North 16.1 mph - N/A   Overcast
10:15 PM 26.6 °F 14.3 °F 26.6 °F 100% 30.28 in 10.0 mi North 16.1 mph - N/A   Overcast
10:35 PM 26.6 °F 13.1 °F 26.6 °F 100% 30.28 in 10.0 mi North 19.6 mph 25.3 mph N/A   Overcast
10:55 PM 26.6 °F 14.3 °F 26.6 °F 100% 30.28 in 10.0 mi North 16.1 mph - N/A   Overcast
11:15 PM 24.8 °F 12.4 °F 24.8 °F 100% 30.27 in 10.0 mi North 15.0 mph - N/A   Mostly Cloudy
11:35 PM 24.8 °F 12.9 °F 24.8 °F 100% 30.27 in 10.0 mi NNW 13.8 mph - N/A   Mostly Cloudy
11:55 PM 24.8 °F 12.9 °F 24.8 °F 100% 30.29 in 10.0 mi NNW 13.8 mph - N/A   Mostly Cloudy